Regional Weather Roundup
Issued by NWS

Home | Current Version | Previous Version | Graphics & Text | Print | Product List | Glossary On
Versions: 1 2 3 4 5 6 7 8 9 10 11 12 13 14 15 16 17 18 19 20 21 22 23 24 25 26 27 28 29 30 31 32 33 34 35 36 37 38 39 40 41 42 43 44 45 46 47 48 49 50
626
ASUS43 KTOP 250459
RWRKS

WEATHER ROUNDUP FOR KANSAS
NATIONAL WEATHER SERVICE GOODLAND KS
1200 AM CDT MON JUL 25 2016

NOTE:  "FAIR" INDICATES FEW OR NO CLOUDS BELOW 12,000 FEET WITH NO
SIGNIFICANT WEATHER AND/OR OBSTRUCTIONS TO VISIBILITY.

KSZ001>006-013>018-027>032-041>047-250600-
NORTHWEST KANSAS

CITY           SKY/WX    TMP DP  RH WIND       PRES   REMARKS
GOODLAND       RAIN      66  63  90 N8        30.26F FOG
HAYS           CLOUDY    72  59  64 NE9       30.06F
HILL CITY      MOCLDY    74  60  61 NE8       30.11F
RUSSELL        PTCLDY    74  65  73 NE9       30.05S
$$

KSZ061>065-074>080-084>089-250600-
SOUTHWEST KANSAS

CITY           SKY/WX    TMP DP  RH WIND       PRES   REMARKS
DODGE CITY     TSTM      77  72  84 E5        30.06R
ELKHART          N/A     72  63  73 NW9         N/A
GARDEN CITY    CLOUDY    78  68  71 N18       30.08R
GREAT BEND     CLOUDY    77  63  61 NE12      30.03S
LIBERAL        CLOUDY    79  61  53 W30       30.12R
$$

KSZ066>073-081>083-090>101-250600-
SOUTHEAST KANSAS

CITY           SKY/WX    TMP DP  RH WIND       PRES   REMARKS
CHANUTE        CLOUDY    85  75  72 SE5       29.96S
COFFEYVILLE    CLOUDY    87  75  67 S5        29.96R HX  96
HUTCHINSON     MOCLDY    84  73  69 NE12      30.00R
NEWTON         CLOUDY    81  75  82 E7        30.02R
PARSONS        CLOUDY    86  73  65 SE5       29.97S
WICHITA INTL   CLOUDY    87  70  56 E7        29.97R
WICHITA JABRA  CLOUDY    81  75  82 NE5       29.98R
WINFIELD       CLOUDY    84  72  67 S7        29.97S
$$

KSZ007>012-019>026-033>040-048>060-102>105-250600-
NORTHEAST KANSAS

CITY           SKY/WX    TMP DP  RH WIND       PRES   REMARKS
CONCORDIA      CLOUDY    71  63  75 NE3       30.06R
EMPORIA        CLOUDY    80  73  79 NE8       30.00R
LAWRENCE       PTCLDY    77  70  79 NE5       29.99F THUNDER
MANHATTAN      PTCLDY    75  67  76 N5        30.01F
OLATHE IND     CLOUDY    81  72  74 E8        29.99F
OLATHE EXE     CLOUDY    81  72  74 E9        29.99F
SALINA         CLOUDY    80  66  62 NE8       30.02R
TOPEKA BILLARD CLOUDY    78  69  73 SW3       30.01R THUNDER
TOPEKA FORBES  CLOUDY    78  69  73 N8        29.99F THUNDER
$$




USA.gov is the U.S. government's official web portal to all federal, state and local government web resources and services.